CW3586 Weather Reports


Display with metric or nautical units.
time (UTC)temp
F
wind
direction
speed
MPH
gust
MPH
rain 1hr
in
rain 24hr
in
rain mn
in
humidity
%
barometer
mb
20191018055104 49 273 7.0 9.0 0.01 1.32 0.02 88 998.1
20191018054604 49 278 8.0 12.0 0.01 1.33 0.02 87 998.1
20191018054104 49 267 7.0 13.0 0.01 1.35 0.02 88 998.1
20191018053605 49 283 7.0 10.0 0.01 1.36 0.02 88 998.0
20191018053104 49 270 8.0 13.0 0.01 1.38 0.02 88 997.9
20191018052605 49 267 8.0 12.0 0.00 1.39 0.01 88 997.9
20191018052104 49 269 8.0 12.0 0.00 1.40 0.01 89 997.8
20191018051605 49 269 6.0 9.0 0.01 1.42 0.01 89 997.7
20191018051105 49 270 5.0 10.0 0.01 1.43 0.01 89 997.6
20191018050604 49 271 6.0 9.0 0.01 1.45 0.01 90 997.4
20191018050104 49 272 6.0 10.0 0.01 1.46 0.01 90 997.4
20191018045604 49 275 7.0 12.0 0.01 1.49 0.01 90 997.2
20191018045104 49 280 6.0 8.0 0.01 1.52 0.01 90 997.1
20191018044604 49 278 5.0 9.0 0.01 1.56 0.01 90 997.0
20191018044104 49 281 6.0 12.0 0.01 1.61 0.01 90 996.8
20191018043604 49 275 6.0 9.0 0.01 1.68 0.01 91 996.8
20191018043105 49 280 7.0 9.0 0.01 1.73 0.01 91 996.7
20191018042604 49 266 6.0 9.0 0.01 1.80 0.01 92 996.6
20191018042105 49 274 4.0 8.0 0.01 1.84 0.01 92 996.6
20191018041604 49 283 4.0 5.0 0.00 1.85 0.00 92 996.4
20191018041105 49 275 6.0 8.0 0.00 1.88 0.00 92 996.3
20191018040605 49 280 3.0 8.0 0.00 1.89 0.00 93 996.3
20191018040104 49 245 5.0 6.0 0.00 1.89 0.00 93 996.2
20191018035604 49 278 5.0 6.0 0.00 1.91 1.89 93 996.3
20191018035104 49 280 3.0 6.0 0.00 1.92 1.89 93 996.1
20191018034604 49 283 4.0 7.0 0.00 1.94 1.89 93 996.0
20191018034104 49 282 3.0 3.0 0.00 1.94 1.89 93 995.8
20191018033605 49 282 3.0 3.0 0.00 1.94 1.89 93 995.8
20191018033104 49 308 3.0 5.0 0.00 1.94 1.89 93 995.7
20191018032604 49 279 4.0 6.0 0.00 1.94 1.89 93 995.7
20191018032104 49 283 3.0 6.0 0.00 1.94 1.89 92 995.6
20191018031604 49 291 5.0 7.0 0.00 1.96 1.89 92 995.6
20191018031104 49 289 5.0 7.0 0.00 1.97 1.89 93 995.6
20191018030604 49 276 4.0 6.0 0.00 1.98 1.89 93 995.5
20191018030104 49 289 3.0 9.0 0.00 1.98 1.89 92 995.4
20191018025604 49 284 5.0 10.0 0.00 1.98 1.89 92 995.2
20191018025104 49 283 7.0 10.0 0.00 1.98 1.89 92 995.1
20191018024604 49 282 7.0 12.0 0.00 1.98 1.89 92 995.0
20191018024104 49 284 6.0 8.0 0.00 1.98 1.89 92 995.0
20191018023604 49 284 7.0 12.0 0.01 1.98 1.89 92 995.0
20191018023104 49 283 8.0 12.0 0.01 1.98 1.89 91 994.8
20191018022604 49 291 8.0 12.0 0.01 1.98 1.89 92 994.8
20191018022105 49 286 4.0 10.0 0.02 1.98 1.89 93 994.8
20191018021605 48 0 5.0 7.0 0.02 1.98 1.89 93 994.9
20191018021104 48 281 7.0 10.0 0.03 1.98 1.89 93 994.5
20191018020604 48 273 6.0 8.0 0.03 1.98 1.89 94 994.6
20191018020104 48 277 6.0 12.0 0.03 1.98 1.89 94 994.4
20191018015604 48 279 5.0 8.0 0.03 1.98 1.89 94 994.4
20191018015104 48 272 5.0 9.0 0.03 1.98 1.89 94 994.3
20191018014604 48 282 6.0 10.0 0.04 1.98 1.89 94 994.2
20191018014104 48 279 5.0 7.0 0.04 1.98 1.89 94 994.2
20191018013604 48 286 6.0 10.0 0.04 1.98 1.89 93 994.1
20191018013104 48 276 6.0 10.0 0.04 1.97 1.88 93 994.0
20191018012605 48 292 4.0 6.0 0.04 1.97 1.88 93 994.0
20191018012104 48 293 3.0 3.0 0.04 1.97 1.88 93 993.9
20191018011605 48 291 5.0 9.0 0.03 1.96 1.87 93 993.8
20191018011104 48 291 5.0 12.0 0.03 1.97 1.87 93 993.8
20191018010604 49 288 6.0 9.0 0.02 1.96 1.86 92 993.6
20191018010105 49 284 5.0 9.0 0.02 1.96 1.86 92 993.5
20191018005604 49 291 5.0 9.0 0.02 1.96 1.86 92 993.4
20191018005105 49 290 6.0 12.0 0.02 1.97 1.86 92 993.3
20191018004604 49 284 6.0 13.0 0.01 1.96 1.85 91 993.2
20191018004105 49 292 6.0 13.0 0.02 1.96 1.85 90 993.0
20191018003604 49 286 7.0 12.0 0.02 1.97 1.85 90 992.9
20191018003105 49 287 7.0 12.0 0.01 1.96 1.84 89 992.8
20191018002605 49 284 8.0 12.0 0.01 1.96 1.84 88 992.7
20191018002105 49 284 6.0 12.0 0.01 1.96 1.84 87 992.5
20191018001605 49 281 8.0 12.0 0.01 1.96 1.84 87 992.4
20191018001104 49 278 7.0 12.0 0.01 1.97 1.84 87 992.3
20191018000605 49 292 6.0 12.0 0.01 1.97 1.84 87 992.1
20191018000105 49 296 6.0 12.0 0.01 1.97 1.84 87 992.0
20191017235604 49 290 5.0 10.0 0.01 1.97 1.84 86 992.0
20191017235104 50 289 5.0 9.0 0.01 1.97 1.84 85 992.0
20191017234605 50 288 6.0 9.0 0.01 1.97 1.84 85 991.8
20191017234104 50 296 6.0 10.0 0.00 1.97 1.83 85 991.7
20191017233604 50 285 7.0 10.0 0.00 1.97 1.83 86 991.6
20191017233104 50 290 5.0 8.0 0.00 1.97 1.83 86 991.6
20191017232604 50 297 6.0 10.0 0.00 1.97 1.83 86 991.4
20191017232104 50 288 6.0 12.0 0.00 1.97 1.83 85 991.3
20191017231604 50 291 7.0 13.0 0.00 1.97 1.83 85 991.1
20191017231105 50 291 6.0 12.0 0.00 1.98 1.83 85 991.1
20191017230604 50 294 7.0 12.0 0.00 1.98 1.83 85 990.9
20191017230104 50 274 7.0 12.0 0.00 1.98 1.83 84 990.9
20191017225604 50 286 8.0 13.0 0.00 1.98 1.83 84 990.8
20191017225105 50 275 6.0 13.0 0.00 1.99 1.83 84 990.7
20191017224604 50 284 7.0 12.0 0.00 1.99 1.83 84 990.6
20191017224104 50 297 7.0 14.0 0.00 1.99 1.83 83 990.6
20191017223604 50 288 6.0 12.0 0.00 2.00 1.83 82 990.4
20191017223104 50 300 5.0 12.0 0.00 2.00 1.83 81 990.3
20191017222604 50 292 6.0 12.0 0.00 2.00 1.83 80 990.1
20191017222104 50 293 6.0 12.0 0.00 2.01 1.83 81 990.0
20191017221604 50 296 6.0 12.0 0.00 2.01 1.83 81 989.9
20191017221104 50 289 9.0 15.0 0.00 2.01 1.83 81 989.7
20191017220605 50 291 9.0 15.0 0.00 2.02 1.83 82 989.6
20191017220105 50 292 7.0 15.0 0.00 2.02 1.83 83 989.6
20191017215604 50 293 9.0 16.0 0.00 2.02 1.83 84 989.4
20191017215104 50 288 10.0 16.0 0.00 2.02 1.83 84 989.3
20191017214604 50 287 9.0 15.0 0.00 2.02 1.83 85 989.2
20191017214104 50 285 7.0 13.0 0.00 2.03 1.83 86 989.1
20191017213605 50 292 9.0 14.0 0.00 2.03 1.83 86 988.9
20191017213104 50 286 10.0 14.0 0.00 2.03 1.83 86 988.8
20191017212605 50 288 8.0 13.0 0.00 2.04 1.83 86 988.8
20191017212106 50 281 10.0 15.0 0.00 2.04 1.83 87 988.6
20191017211605 50 284 9.0 16.0 0.00 2.04 1.83 87 988.5
20191017211105 50 288 9.0 13.0 0.00 2.04 1.83 87 988.3
20191017210604 50 295 10.0 16.0 0.00 2.04 1.83 87 988.2
20191017210105 50 288 8.0 15.0 0.00 2.04 1.83 87 988.1
20191017205605 50 282 12.0 17.0 0.00 2.04 1.83 87 988.0
20191017205104 50 283 11.0 16.0 0.00 2.04 1.83 86 987.8
20191017204605 50 289 10.0 15.0 0.00 2.04 1.83 86 987.7
20191017204105 50 284 9.0 16.0 0.00 2.04 1.83 86 987.6
20191017203605 50 290 13.0 20.0 0.00 2.04 1.83 86 987.5
20191017203104 50 287 10.0 17.0 0.00 2.04 1.83 86 987.4
20191017202605 50 284 13.0 20.0 0.00 2.04 1.83 87 987.2
20191017202104 50 281 12.0 20.0 0.00 2.04 1.83 86 987.0
20191017201605 50 286 12.0 20.0 0.00 2.04 1.83 87 986.9
20191017201105 50 285 12.0 20.0 0.00 2.04 1.83 87 986.8
20191017200604 50 282 9.0 16.0 0.00 2.04 1.83 87 986.7
20191017200105 50 285 12.0 16.0 0.00 2.04 1.83 86 986.6
20191017195604 50 282 12.0 18.0 0.00 2.04 1.83 86 986.5
20191017195104 50 278 10.0 15.0 0.00 2.04 1.83 86 986.4
20191017194605 50 286 12.0 17.0 0.00 2.04 1.83 87 986.2
20191017194104 50 303 10.0 17.0 0.00 2.04 1.83 88 986.1
20191017193604 50 293 10.0 20.0 0.00 2.04 1.83 87 986.0
20191017193104 49 288 12.0 22.0 0.00 2.04 1.83 88 985.9
20191017192604 49 292 10.0 20.0 0.00 2.04 1.83 88 985.8
20191017192104 49 294 12.0 17.0 0.01 2.04 1.83 88 985.8
20191017191605 49 297 9.0 16.0 0.01 2.04 1.83 88 985.7
20191017191104 49 287 9.0 14.0 0.01 2.04 1.83 88 985.5
20191017190604 49 296 7.0 10.0 0.01 2.04 1.83 88 985.5
20191017190105 49 296 8.0 12.0 0.01 2.04 1.83 88 985.5
20191017185604 48 282 9.0 15.0 0.01 2.04 1.83 88 985.3
20191017185104 48 288 10.0 16.0 0.01 2.04 1.83 88 985.0
20191017184604 48 303 10.0 13.0 0.02 2.04 1.83 89 984.9
20191017184104 48 292 8.0 16.0 0.02 2.04 1.83 90 984.9
20191017183604 48 292 10.0 14.0 0.02 2.04 1.83 91 984.8
20191017183105 48 274 8.0 12.0 0.02 2.04 1.83 91 984.6
20191017182604 48 280 9.0 13.0 0.03 2.04 1.83 91 984.5
20191017182105 48 295 7.0 12.0 0.02 2.03 1.82 91 984.3
20191017181605 48 289 8.0 14.0 0.02 2.03 1.82 93 984.3
20191017181105 47 286 7.0 15.0 0.02 2.03 1.82 91 984.1
20191017180604 47 292 9.0 16.0 0.03 2.03 1.82 91 984.0
20191017180105 47 283 10.0 20.0 0.04 2.03 1.82 91 983.8
20191017175605 47 268 10.0 16.0 0.04 2.03 1.82 92 983.8
20191017175104 47 282 12.0 20.0 0.05 2.03 1.82 92 983.6
20191017174605 47 264 9.0 18.0 0.04 2.02 1.81 92 983.5
20191017174104 47 283 10.0 16.0 0.05 2.02 1.81 92 983.6
20191017173604 47 291 11.0 20.0 0.06 2.02 1.81 92 983.4
20191017173104 47 289 12.0 21.0 0.06 2.02 1.81 92 983.3
20191017172604 47 280 11.0 20.0 0.05 2.01 1.80 93 983.2
20191017172104 47 286 9.0 15.0 0.05 2.01 1.80 93 983.2
20191017171604 47 288 8.0 16.0 0.05 2.01 1.80 93 983.2
20191017171104 47 283 10.0 16.0 0.06 2.01 1.80 92 983.1
20191017170604 47 285 10.0 18.0 0.05 2.00 1.79 92 983.1
20191017170105 47 286 10.0 17.0 0.04 1.99 1.78 92 983.0
20191017165604 47 284 9.0 16.0 0.04 1.99 1.78 92 983.0
20191017165104 47 294 10.0 18.0 0.03 1.98 1.77 92 982.7
20191017164604 47 286 8.0 24.0 0.04 1.98 1.77 92 982.8
20191017164105 47 281 9.0 20.0 0.03 1.97 1.76 92 982.7
20191017163604 47 284 9.0 18.0 0.02 1.96 1.75 92 982.7
20191017163104 47 287 11.0 18.0 0.03 1.96 1.75 91 982.6
20191017162604 47 286 13.0 25.0 0.03 1.96 1.75 91 982.5
20191017162104 47 289 9.0 23.0 0.03 1.96 1.75 91 982.5
20191017161604 47 296 10.0 26.0 0.04 1.96 1.75 90 982.5
20191017161104 47 301 9.0 20.0 0.03 1.95 1.74 90 982.3
20191017160604 47 291 12.0 24.0 0.03 1.95 1.74 90 982.3
20191017160104 47 299 10.0 25.0 0.04 1.95 1.74 91 982.2
20191017155604 47 309 6.0 10.0 0.04 1.95 1.74 91 982.1
20191017155103 47 296 10.0 17.0 0.04 1.95 1.74 91 982.1
20191017154603 47 289 10.0 17.0 0.04 1.94 1.73 91 982.0
20191017154104 48 288 7.0 14.0 0.04 1.94 1.73 91 982.1
20191017153604 48 285 8.0 17.0 0.04 1.94 1.73 91 982.0
20191017153104 48 290 12.0 33.0 0.04 1.93 1.72 90 982.0
20191017152604 48 284 12.0 31.0 0.04 1.93 1.72 91 982.0
20191017152104 48 311 13.0 25.0 0.05 1.93 1.72 91 981.8
20191017151604 48 281 12.0 25.0 0.04 1.92 1.71 92 981.9
20191017151104 48 292 12.0 20.0 0.05 1.92 1.71 93 981.8
20191017150604 47 284 13.0 21.0 0.05 1.92 1.71 93 981.7
20191017150105 48 291 7.0 12.0 0.04 1.91 1.70 93 981.6
20191017145604 48 290 13.0 22.0 0.05 1.91 1.70 93 981.6
20191017145104 48 292 13.0 24.0 0.05 1.91 1.70 93 981.5
20191017144605 48 285 13.0 24.0 0.04 1.90 1.69 93 981.3
20191017144104 47 276 14.0 24.0 0.05 1.90 1.69 94 981.3
20191017143604 47 284 12.0 20.0 0.05 1.90 1.69 94 981.3
20191017143104 47 290 12.0 20.0 0.05 1.89 1.68 94 981.2
20191017142604 47 290 10.0 15.0 0.05 1.89 1.68 93 981.3
20191017142104 47 287 10.0 16.0 0.05 1.88 1.67 93 981.4
20191017141604 47 290 12.0 25.0 0.05 1.88 1.67 93 981.4
20191017141105 47 280 13.0 20.0 0.05 1.87 1.66 93 981.3
20191017140604 47 294 13.0 21.0 0.05 1.87 1.66 93 981.4
20191017140104 47 284 11.0 21.0 0.05 1.87 1.66 92 981.3
20191017135604 47 284 13.0 20.0 0.05 1.86 1.65 92 981.3
20191017135105 47 286 16.0 30.0 0.05 1.86 1.65 91 981.3
20191017134605 47 291 14.0 32.0 0.05 1.86 1.65 92 981.2
20191017134104 47 285 14.0 26.0 0.05 1.85 1.64 92 981.3
20191017133605 47 274 15.0 26.0 0.06 1.85 1.64 93 981.2
20191017133104 46 288 14.0 23.0 0.05 1.84 1.63 93 981.3
20191017132604 46 282 11.0 20.0 0.06 1.84 1.63 93 981.2
20191017132104 46 288 13.0 24.0 0.06 1.83 1.62 92 981.2
20191017131604 46 278 16.0 24.0 0.06 1.83 1.62 93 981.2
20191017131104 46 286 13.0 20.0 0.06 1.82 1.61 93 981.3
20191017130605 46 286 17.0 25.0 0.07 1.82 1.61 93 981.2
20191017130104 46 281 17.0 26.0 0.08 1.82 1.61 93 981.3
20191017125604 46 280 16.0 26.0 0.08 1.81 1.60 94 981.4
20191017125103 46 286 18.0 28.0 0.09 1.81 1.60 94 981.4
20191017124604 46 285 16.0 30.0 0.09 1.81 1.60 94 981.6
20191017124104 46 282 13.0 25.0 0.09 1.80 1.59 95 981.5
20191017123604 46 284 15.0 22.0 0.09 1.79 1.58 95 981.5
20191017123104 46 295 14.0 20.0 0.10 1.79 1.58 95 981.5
20191017122604 46 291 13.0 20.0 0.10 1.78 1.57 95 981.4
20191017122104 46 292 15.0 21.0 0.10 1.77 1.56 95 981.4
20191017121604 46 291 9.0 20.0 0.11 1.77 1.56 95 981.4
20191017121104 46 286 14.0 23.0 0.11 1.76 1.55 95 981.2
20191017120604 46 281 14.0 20.0 0.10 1.75 1.54 95 981.3
20191017120104 46 277 13.0 20.0 0.10 1.74 1.53 95 981.3
20191017115604 46 287 14.0 21.0 0.10 1.73 1.52 95 981.3
20191017115104 46 283 13.0 24.0 0.10 1.72 1.51 95 981.2
20191017114604 46 281 10.0 22.0 0.10 1.72 1.51 95 981.3
20191017114104 46 283 13.0 21.0 0.10 1.71 1.50 95 981.3
20191017113604 46 302 13.0 20.0 0.10 1.70 1.49 95 981.2
20191017113104 46 282 13.0 18.0 0.09 1.69 1.48 95 981.2
20191017112604 46 293 10.0 18.0 0.09 1.68 1.47 95 981.2
20191017112104 46 315 5.0 14.0 0.09 1.67 1.46 96 981.2
20191017111604 46 292 9.0 16.0 0.10 1.66 1.45 96 981.3
20191017111104 46 298 5.0 16.0 0.10 1.65 1.44 96 981.1
20191017110604 46 288 12.0 20.0 0.11 1.65 1.44 96 980.9
20191017110104 47 286 9.0 16.0 0.11 1.64 1.43 96 981.0
20191017105604 47 290 6.0 12.0 0.11 1.63 1.42 96 981.0
20191017105104 47 287 12.0 20.0 0.12 1.62 1.41 96 981.0
20191017104603 47 297 9.0 12.0 0.13 1.62 1.41 96 981.0
20191017104104 47 330 3.0 10.0 0.13 1.61 1.40 96 981.1
20191017103604 47 299 2.0 10.0 0.14 1.60 1.39 96 981.1
20191017103104 47 298 13.0 18.0 0.15 1.60 1.39 96 981.0
20191017102604 47 291 7.0 14.0 0.15 1.59 1.38 96 981.1
20191017102104 47 291 7.0 15.0 0.16 1.58 1.37 96 981.0
20191017101604 47 289 10.0 18.0 0.15 1.56 1.35 96 981.0
20191017101104 47 294 8.0 17.0 0.15 1.55 1.34 96 981.0
20191017100605 47 295 9.0 16.0 0.15 1.54 1.33 96 981.0
20191017100105 47 288 7.0 16.0 0.16 1.53 1.32 96 981.0
20191017095605 47 298 9.0 15.0 0.16 1.52 1.31 96 981.0
20191017095104 47 290 9.0 14.0 0.15 1.50 1.29 96 981.1
20191017094604 48 281 10.0 14.0 0.15 1.49 1.28 96 981.0
20191017094105 48 296 7.0 13.0 0.16 1.48 1.27 96 981.1
20191017093605 48 291 7.0 15.0 0.15 1.46 1.25 96 981.2
20191017093105 48 289 10.0 17.0 0.15 1.45 1.24 96 981.2
20191017092605 48 293 7.0 15.0 0.16 1.44 1.23 96 981.3
20191017092104 48 282 10.0 16.0 0.16 1.43 1.22 96 981.4
20191017091604 48 281 7.0 13.0 0.16 1.41 1.20 96 981.5
20191017091104 48 286 10.0 14.0 0.16 1.40 1.19 96 981.6
20191017090604 48 297 8.0 12.0 0.17 1.39 1.18 96 981.5
20191017090104 48 288 8.0 14.0 0.18 1.38 1.17 96 981.6
20191017085605 48 285 12.0 20.0 0.19 1.36 1.15 96 981.7
20191017085103 48 291 11.0 18.0 0.20 1.35 1.14 96 981.8
20191017084604 49 287 11.0 20.0 0.21 1.34 1.13 96 982.0
20191017084104 49 288 8.0 20.0 0.21 1.33 1.12 99 982.1
20191017083604 49 278 11.0 16.0 0.21 1.31 1.10 96 982.1
20191017083103 49 289 12.0 15.0 0.21 1.30 1.09 96 982.1
20191017082605 49 285 9.0 16.0 0.21 1.28 1.07 96 982.3
20191017082103 49 292 10.0 18.0 0.21 1.27 1.06 96 982.4
20191017081603 49 281 12.0 21.0 0.21 1.25 1.04 95 982.5
20191017081104 49 285 12.0 20.0 0.21 1.24 1.03 95 982.5
20191017080604 49 282 13.0 24.0 0.20 1.22 1.01 95 982.7
20191017080104 50 284 13.0 20.0 0.19 1.20 0.99 95 982.8
20191017075604 51 296 7.0 20.0 0.17 1.17 0.96 96 983.0
20191017075104 51 282 13.0 20.0 0.17 1.15 0.94 96 983.2
20191017074604 51 286 10.0 20.0 0.16 1.13 0.92 96 983.3
20191017074104 51 290 7.0 18.0 0.17 1.12 0.91 96 983.4
20191017073604 51 304 6.0 12.0 0.16 1.10 0.89 96 983.3
20191017073104 51 297 6.0 12.0 0.16 1.09 0.88 96 983.3
20191017072604 51 296 5.0 9.0 0.15 1.07 0.86 96 983.2
20191017072104 51 314 7.0 15.0 0.15 1.06 0.85 96 983.4
20191017071603 51 301 4.0 12.0 0.15 1.04 0.83 96 983.6
20191017071104 51 309 5.0 14.0 0.15 1.03 0.82 96 983.5
20191017070604 51 300 4.0 10.0 0.15 1.02 0.81 96 983.6
20191017070105 51 308 6.0 15.0 0.16 1.01 0.80 96 983.6
20191017065604 51 312 5.0 12.0 0.17 1.00 0.79 96 983.7
20191017065104 51 305 4.0 12.0 0.17 0.98 0.77 95 983.7
20191017064604 51 312 5.0 16.0 0.17 0.97 0.76 96 984.0
20191017064106 51 320 5.0 14.0 0.16 0.95 0.74 96 984.0
20191017063605 51 320 6.0 14.0 0.17 0.94 0.73 95 984.1
20191017063105 52 303 4.0 10.0 0.17 0.93 0.72 96 984.4
20191017062604 52 339 2.0 10.0 0.18 0.92 0.71 95 984.4
20191017062104 52 309 3.0 10.0 0.19 0.91 0.70 95 984.4
20191017061604 52 331 4.0 10.0 0.18 0.89 0.68 95 984.8
20191017061104 52 332 4.0 12.0 0.19 0.88 0.67 95 984.9
20191017060604 52 332 1.0 7.0 0.19 0.87 0.66 95 985.1
20191017060104 52 357 5.0 12.0 0.19 0.85 0.64 95 985.2
20191017055604 52 327 3.0 12.0 0.18 0.83 0.62 95 985.4